Retour au catalogue

STARLINK-3515

ActifCommunicationsVLEO
NORAD 51738·PAYLOAD·🇺🇸 United States

Lancé Feb 21, 2022 depuis Cape Canaveral Space Force Station

Loading…

Prochains Passages (prochaines 24 heures)

TLE

FraisSource: CelesTrak SupGP

Époque: Sep 15, 2026, 01:40 UTC

1 51738C 22016AA  26258.06993056 -.00010032  00000+0 -32267-3 0  2584
2 51738  53.1578 176.1031 0001093  86.6350 359.7782 15.31701030    18

Suivez STARLINK-3515 en temps réel avec AllMySat

Download on the App Store